Cloud_Cover
35 82 100 100 100 100 100 100 100 100 89 5 5 5 5 1 3 5 10 6 63 100 46 20 27 7 5 42 2 5 5 5 0 0 0 0 1 5 5 0 0 0 5 5
85 100 100 88 98 100 100 100 100 100 5 8 11 21 5 10 2 4 14 5 92 100 100 92 57 90 74 3 4 4 5 2 0 5 5 5 21 40 5 5 5 4 4 5
100 100 100 100 100 100 100 100 100 100 20 30 9 5 5 5 24 2 4 5 64 100 100 100 100 100 100 88 33 48 69 41 8 20 5 5 5 3 5 5 5 5 5 5
100 100 100 100 100 100 100 100 99 98 44 5 5 5 5 10 3 1 5 48 86 99 100 100 100 100 100 93 91 97 23 5 5 5 4 0 5 5 5 5 5 5 5 5
96 100 100 100 100 100 100 100 100 100 100 15 7 5 42 9 5 5 4 71 5 5 6 75 100 100 35 12 5 0 5 5 3 0 0 4 5 5 5 5 5 5 5 6
100 100 100 100 100 100 100 100 100 100 100 58 91 100 5 44 73 26 6 5 7 15 5 5 31 59 15 22 5 5 5 5 5 1 0 5 5 5 5 5 10 6 49 100
100 100 100 100 100 100 100 100 100 100 100 98 100 98 14 80 100 59 99 82 66 13 5 3 5 5 37 7 4 5 5 5 5 5 5 5 5 5 24 16 28 39 78 94
100 100 100 100 100 100 100 100 100 100 100 100 100 80 76 100 100 100 77 94 45 39 11 27 46 94 6 2 1 5 5 5 4 5 5 5 5 6 5 5 5 38 91 100
100 100 100 100 100 100 100 100 100 100 100 95 93 100 88 58 99 96 16 14 99 100 100 99 80 16 13 8 52 5 5 2 4 7 30 7 29 13 5 5 5 5 75 77
100 94 100 100 100 100 100 100 100 100 100 100 100 94 100 89 32 54 39 88 97 72 100 96 100 100 100 99 10 5 5 27 84 100 100 27 5 5 5 5 5 5 18 100
100 100 49 98 94 100 100 100 100 100 100 100 100 100 100 100 99 98 100 85 81 69 19 42 100 100 90 79 61 89 100 100 100 98 10 5 5 5 5 6 5 5 85 100
100 100 74 98 100 100 100 100 100 100 100 100 100 80 100 100 100 100 100 53 33 66 12 100 100 100 100 100 100 100 100 100 73 36 9 5 5 5 5 8 20 14 100 100
100 100 86 100 100 100 100 100 100 100 100 100 97 90 100 100 100 100 95 93 100 78 71 100 100 60 72 76 97 100 100 100 94 17 5 5 5 5 5 42 29 10 100 100
100 100 100 73 96 100 100 100 100 100 100 94 100 100 82 100 100 100 77 88 100 100 99 100 99 96 100 100 100 100 100 80 10 5 5 10 59 34 21 23 5 14 100 100
100 100 100 100 100 100 100 99 100 100 100 100 10 26 100 100 100 100 100 100 100 100 100 100 100 100 100 100 100 100 62 56 52 19 5 63 54 5 73 8 13 100 100 100
100 100 100 100 100 100 100 100 100 100 100 100 100 33 100 100 100 100 100 100 100 100 100 100 100 100 100 100 45 5 8 5 5 52 70 59 15 23 5 7 50 100 100 100
100 100 100 100 100 100 100 100 100 100 100 100 100 100 100 100 100 100 100 100 100 100 100 100 100 100 95 10 5 5 11 5 5 35 72 76 95 98 89 56 80 100 100 100
100 100 100 100 100 100 100 100 100 100 100 100 100 100 100 100 100 100 100 100 100 99 100 100 75 47 9 5 5 7 5 5 5 48 59 70 100 100 97 100 98 100 100 100
96 100 100 100 100 100 100 100 100 100 100 100 100 100 100 100 100 100 100 82 48 14 17 11 5 5 7 5 5 5 5 5 95 100 100 96 100 100 100 100 100 100 100 100
100 100 100 100 100 85 100 100 100 100 100 100 100 94 100 99 96 78 58 6 5 5 15 16 5 5 5 5 5 5 8 99 100 100 100 100 100 100 100 100 100 100 100 100
100 100 100 100 100 82 32 66 83 78 94 43 32 50 98 98 99 100 77 16 26 5 26 28 7 21 5 5 5 5 78 100 100 100 100 100 100 100 100 100 100 100 100 100
100 100 100 100 100 83 96 100 55 18 5 5 93 98 92 99 96 100 57 5 5 5 6 48 41 15 5 5 5 61 100 100 100 100 100 100 100 96 100 100 100 100 100 100
100 77 100 100 100 96 87 95 9 86 12 5 65 98 100 97 100 54 5 5 5 97 99 41 24 10 38 5 29 100 100 100 100 100 100 100 100 100 87 99 100 100 100 100
100 100 100 96 100 100 88 77 100 86 68 87 80 5 100 99 73 70 5 5 34 100 75 64 21 5 13 54 25 99 100 91 100 98 100 100 100 100 100 100 100 96 100 100
100 100 100 100 100 100 100 100 100 100 97 93 67 72 100 100 97 100 97 100 100 100 98 9 5 32 100 82 80 35 22 56 78 78 89 99 100 100 100 100 100 100 100 100
100 100 100 100 100 100 100 99 100 100 44 2 5 12 89 97 99 91 87 100 100 93 5 5 64 100 82 60 64 43 26 83 80 83 82 99 98 100 100 100 100 100 100 100